Content
SEND FEEDBACK

Daily
Averages
Monthly
Summary
United States of America

FAIRCHILD, WISCONSIN


Home > North America > United States > Wisconsin
Elevation: 339 meters     Latitude: 44 35N     Longitude: 090 58W

WEATHER
 
SELECT A DAY
Number of Records: 85,847;   Date Range: 11/18/10 - 7/19/14
 
SHARE

PRINT THIS DATA

[ ← Previous Day ]
WEATHER ALMANAC - 5 FEBRUARY, 2013
[ Next Day → ]
[ °F ]   °C
Weather ElementAverageHighLow
Temperature-8.5 °C-1 °C (12:55 pm)-21 °C (11:35 pm)
Dewpoint-11.1 °C-4 °C (12:15 pm)-23 °C (11:35 pm)
Humidity82.1 %100 % (6:55 pm)68 % (5:55 pm)
Barometer1010.5 hPa1018.6 hPa (11:35 pm)1005.1 hPa (7:55 am)
Wind Speed6.8 km/h22.2 km/h (2:15 pm)
Wind Gust31.5 km/h (2:15 pm)
Weather ElementAverage
Visibility12.6 km
Wind DirectionS (175.2 °)

Weather ElementTotal
Precipitation---
Heating Degree Days29.3 (Base 18.3)
Averaged from 64 records on 5 February, 2013
WEATHER CONDITIONS BREAKOUT
WIND DIRECTION BREAKOUT
WEATHER BY HOUR - 5 FEBRUARY, 2013
[ °F ]   °C
Local TimeTemperatureDewpointHumidityBarometerVisibilityWind DirectionWind SpeedGust SpeedPrecipitationEventsConditions
12:35 AM-18 °C-21 °C78 %1011.2 hPa16.1 kmCalmMostly Cloudy
1:15 AM-16 °C-18 °C85 %1010.2 hPa16.1 kmCalmOvercast
1:35 AM-15 °C-17 °C85 %1009.8 hPa16.1 kmCalmOvercast
1:55 AM-14 °C-16 °C85 %1009.8 hPa16.1 kmCalmOvercast
2:15 AM-13 °C-16 °C79 %1009.1 hPa16.1 kmCalmOvercast
2:35 AM-11 °C-15 °C73 %1008.8 hPa4 kmSouth (180°)7.4 km/hSnowLight Snow
2:55 AM-10 °C-13 °C79 %1008.1 hPa4.8 kmSouth (190°)7.4 km/hSnowLight Snow
3:15 AM-10 °C-12 °C86 %1007.8 hPa2.4 kmSW (220°)7.4 km/hSnowLight Snow
3:35 AM-10 °C-12 °C86 %1007.8 hPa4 kmSW (220°)5.6 km/hSnowLight Snow
4:15 AM-9 °C-11 °C86 %1006.8 hPa8 kmSouth (190°)9.3 km/hOvercast
4:35 AM-8 °C-11 °C79 %1006.8 hPa16.1 kmSSW (210°)7.4 km/hOvercast
4:55 AM-8 °C-10 °C86 %1006.8 hPa11.3 kmSW (220°)5.6 km/hSnowLight Snow
5:15 AM-8 °C-10 °C86 %1006.4 hPa16.1 kmSSW (210°)9.3 km/hOvercast
5:35 AM-7 °C-10 °C80 %1006.1 hPa16.1 kmSW (220°)9.3 km/hOvercast
5:55 AM-7 °C-9 °C86 %1006.1 hPa16.1 kmSW (230°)7.4 km/hOvercast
6:15 AM-7 °C-9 °C86 %1005.8 hPa16.1 kmSW (220°)9.3 km/hOvercast
6:35 AM-7 °C-9 °C86 %1005.8 hPa16.1 kmSW (220°)14.8 km/hOvercast
6:55 AM-6 °C-9 °C80 %1005.8 hPa16.1 kmSW (220°)11.1 km/hOvercast
7:15 AM-6 °C-8 °C86 %1005.8 hPa11.3 kmSW (220°)9.3 km/hSnowLight Snow
7:35 AM-6 °C-8 °C86 %1005.4 hPa8 kmSW (220°)11.1 km/hSnowLight Snow
7:55 AM-6 °C-8 °C86 %1005.1 hPa0.8 kmSSW (210°)13 km/hSnowLight Snow
8:15 AM-6 °C-7 °C93 %1005.4 hPa2.4 kmSW (230°)9.3 km/hSnowLight Snow
8:35 AM-6 °C-7 °C93 %1005.8 hPa4 kmSW (230°)9.3 km/hSnowLight Snow
8:55 AM-6 °C-7 °C93 %1005.8 hPa8 kmSW (230°)7.4 km/hOvercast
9:15 AM-5 °C-7 °C86 %1006.1 hPa8 kmSW (220°)7.4 km/hOvercast
9:35 AM-5 °C-7 °C86 %1006.1 hPa8 kmSW (230°)7.4 km/hOvercast
10:15 AM-4 °C-6 °C86 %1006.4 hPa11.3 kmSW (220°)7.4 km/hOvercast
10:35 AM-4 °C-6 °C86 %1006.8 hPa11.3 kmSSW (210°)5.6 km/hOvercast
10:55 AM-3 °C-6 °C80 %1007.1 hPa11.3 kmWSW (240°)5.6 km/hOvercast
11:15 AM-3 °C-6 °C80 %1007.1 hPa11.3 kmWSW (250°)9.3 km/hOvercast
11:35 AM-2 °C-5 °C80 %1007.5 hPa11.3 kmWest (270°)11.1 km/hOvercast
12:15 PM-2 °C-4 °C86 %1007.8 hPa11.3 kmWNW (290°)9.3 km/hOvercast
12:35 PM-2 °C-4 °C86 %1007.8 hPa11.3 kmWNW (300°)11.1 km/hOvercast
12:55 PM-1 °C-4 °C80 %1008.5 hPa11.3 kmWNW (300°)13 km/hOvercast
1:15 PM-1 °C-5 °C75 %1008.8 hPa16.1 kmNW (310°)14.8 km/hOvercast
1:35 PM-2 °C-5 °C80 %1008.8 hPa11.3 kmNW (320°)13 km/hOvercast
1:55 PM-2 °C-5 °C80 %1009.1 hPa16.1 kmNNW (330°)14.8 km/hOvercast
2:15 PM-2 °C-6 °C74 %1009.5 hPa16.1 kmNW (320°)22.2 km/h31.5 km/hOvercast
2:35 PM-2 °C-6 °C74 %1009.8 hPa16.1 kmNW (310°)16.7 km/h25.9 km/hOvercast
3:15 PM-2 °C-6 °C74 %1010.8 hPa16.1 kmNNW (330°)16.7 km/h25.9 km/hOvercast
3:35 PM-2 °C-7 °C69 %1011.2 hPa16.1 kmNorth (350°)14.8 km/hOvercast
3:55 PM-2 °C-7 °C69 %1011.5 hPa16.1 kmNNW (340°)9.3 km/hOvercast
4:15 PM-3 °C-8 °C69 %1012.2 hPa16.1 kmNW (310°)13 km/hOvercast
4:35 PM-3 °C-8 °C69 %1012.5 hPa16.1 kmNNW (330°)13 km/hOvercast
4:55 PM-3 °C-8 °C69 %1013.2 hPa16.1 kmNNW (340°)7.4 km/hOvercast
5:15 PM-3 °C-8 °C69 %1013.5 hPa16.1 kmNNW (340°)7.4 km/hOvercast
5:35 PM-4 °C-9 °C69 %1013.9 hPa16.1 kmNNW (340°)7.4 km/hOvercast
5:55 PM-5 °C-10 °C68 %1014.2 hPa16.1 kmNW (320°)5.6 km/hScattered Clouds
6:35 PM-9 °C-11 °C86 %1014.9 hPa16.1 kmCalmClear
6:55 PM-11 °C-11 °C100 %1015.2 hPa11.3 kmCalmClear
7:15 PM-12 °C-13 °C92 %1015.6 hPa6.4 kmCalmClear
7:35 PM-13 °C-15 °C85 %1015.9 hPa11.3 kmCalmClear
7:55 PM-13 °C-15 °C85 %1016.3 hPa16.1 kmCalmClear
8:15 PM-15 °C-16 °C92 %1016.6 hPa16.1 kmCalmClear
8:35 PM-16 °C-18 °C85 %1016.9 hPa16.1 kmCalmClear
8:55 PM-16 °C-17 °C92 %1016.9 hPa11.3 kmCalmClear
9:15 PM-17 °C-19 °C85 %1017.3 hPa11.3 kmCalmClear
9:35 PM-18 °C-20 °C85 %1017.3 hPa16.1 kmCalmClear
9:55 PM-18 °C-21 °C78 %1017.6 hPa16.1 kmCalmClear
10:15 PM-18 °C-21 °C78 %1017.9 hPa11.3 kmCalmClear
10:35 PM-19 °C-21 °C85 %1017.9 hPa16.1 kmCalmClear
10:55 PM-20 °C-22 °C85 %1018.3 hPa16.1 kmCalmClear
11:15 PM-20 °C-22 °C85 %1018.3 hPa16.1 kmCalmClear
11:35 PM-21 °C-23 °C84 %1018.6 hPa11.3 kmCalmClear
Hourly data recorded from KBCK, located 0 kilometers away from Fairchild, Wisconsin







STORIES FROM OUR PARTNERS